Location: London
(42.9830°N, 81.2500°W)
Time: 02:50:19
(UTC-04:00)

Amateur Radio Satellites - All Passes

Search period start: 29 August 2015 02:20
Search period end: 30 August 2015 02:20
Location: London, 42.9830°N, 81.2500°W

Satellite Date Start Highest point End Downlink Frequencies (MHz)
Time Altitude Azimuth
TISAT 1 29 Aug 02:28:25 02:30:46 14° 271° (W) 02:32:57 437.305
Oscar 19 29 Aug 02:36:12 02:41:14 48° 99° (E) 02:46:16 437.125/150
SO-50 29 Aug 02:38:54 02:43:36 61° 121° (ESE) 02:48:29 436.795
ITUPSAT 1 29 Aug 02:42:23 02:47:08 64° 259° (W) 02:51:54 437.325
GONETS M04 29 Aug 02:42:34 02:49:12 27° 82° (E) 02:56:09
Gurwin Techsat 1B 29 Aug 02:51:08 02:55:04 22° 91° (E) 02:59:10 435.225
RS-15 29 Aug 02:59:03 03:10:52 75° 241° (WSW) 03:23:02 29.354- 29.394
JAS-2 29 Aug 03:08:22 03:12:59 19° 84° (E) 03:17:34 435.910
PCSat 29 Aug 03:08:57 03:14:11 54° 115° (ESE) 03:19:30 145.827
BEESAT 29 Aug 03:18:39 03:22:46 28° 265° (W) 03:26:51 436.000
ITAMSAT 1 29 Aug 03:27:51 03:32:38 37° 97° (E) 03:37:26 435.822/435.867
AIST 2 29 Aug 03:30:12 03:33:52 29° 245° (WSW) 03:37:25 435.215
STARS 29 Aug 03:34:50 03:39:03 47° 72° (ENE) 03:43:20 437.465
MOZHAYETS 4 29 Aug 03:36:16 03:38:15 13° 62° (ENE) 03:40:27
KKS-1 29 Aug 03:44:54 03:49:21 81° 257° (WSW) 03:53:51 437.445
SWISSCUBE 29 Aug 03:45:52 03:48:37 15° 271° (W) 03:51:08 437.505
Cosmos 2499 29 Aug 03:54:40 04:00:02 20° 78° (ENE) 04:05:59 435.465 / 435.565
Oscar 19 29 Aug 04:16:14 04:20:19 23° 296° (WNW) 04:24:16 437.125/150
SO-50 29 Aug 04:20:42 04:24:36 23° 320° (NW) 04:28:30 436.795
AO-7 29 Aug 04:26:37 04:33:31 29° 93° (E) 04:40:34 29.400- 29.500
Gurwin Techsat 1B 29 Aug 04:30:15 04:35:24 50° 289° (WNW) 04:40:30 435.225
O/OREOS (USA 219) 29 Aug 04:35:42 04:37:24 12° 47° (NE) 04:39:17 437.305
GONETS M04 29 Aug 04:36:45 04:45:24 68° 282° (WNW) 04:54:06
HORYU 2 29 Aug 04:46:39 04:50:28 27° 95° (E) 04:54:16 437.375
JAS-2 29 Aug 04:51:49 04:59:07 78° 286° (WNW) 05:05:31 435.910
PCSat 29 Aug 04:53:23 04:57:57 26° 315° (NW) 05:02:29 145.827
VERMONT LUNAR 29 Aug 04:58:35 04:59:25 11° 151° (SSE) 05:00:18 437.305
ITAMSAT 1 29 Aug 05:07:35 05:12:02 29° 294° (WNW) 05:16:25 435.822/435.867
MOZHAYETS 4 29 Aug 05:10:19 05:14:56 75° 257° (WSW) 05:19:35
STARS 29 Aug 05:12:50 05:15:47 17° 269° (W) 05:18:37 437.465
RS-15 29 Aug 05:14:06 05:21:43 18° 260° (W) 05:28:33 29.354- 29.394
CUBESAT XI-V 29 Aug 05:20:46 05:23:01 14° 63° (ENE) 05:25:27 437.345
Cosmos 2499 29 Aug 05:43:40 05:52:04 89° 278° (W) 06:00:59 435.465 / 435.565
O/OREOS (USA 219) 29 Aug 06:13:00 06:17:39 87° 66° (ENE) 06:22:14 437.305
AO-7 29 Aug 06:18:43 06:26:56 65° 293° (WNW) 06:35:03 29.400- 29.500
HORYU 2 29 Aug 06:23:09 06:27:04 30° 292° (WNW) 06:30:55 437.375
Cubesat XI-IV 29 Aug 06:23:57 06:25:52 12° 86° (E) 06:28:06 437.490
VERMONT LUNAR 29 Aug 06:32:36 06:35:22 34° 166° (SSE) 06:38:08 437.305
JAS-2 29 Aug 06:38:37 06:42:58 17° 307° (NW) 06:46:48 435.910
GONETS M04 29 Aug 06:39:48 06:44:24 14° 307° (NW) 06:48:28
CUBESAT XI-V 29 Aug 06:55:23 06:59:58 68° 260° (W) 07:04:34 437.345
STRAND 1 29 Aug 07:06:55 07:11:45 46° 70° (ENE) 07:16:38 437.568
PRISM 29 Aug 07:07:38 07:11:11 29° 69° (ENE) 07:14:47 437.425
CUTE-I 29 Aug 07:07:48 07:12:30 32° 95° (E) 07:17:16 437.470
Cosmos 2499 29 Aug 07:40:29 07:46:46 21° 301° (WNW) 07:52:51 435.465 / 435.565
PHONESAT 2.4 29 Aug 07:53:24 07:56:09 23° 157° (SSE) 07:58:56 2401.200-2431.200
Cubesat XI-IV 29 Aug 08:01:26 08:06:46 85° 288° (WNW) 08:12:07 437.490
YUBILEINY 29 Aug 08:03:04 08:10:25 29° 65° (ENE) 08:17:56 435.215
GOMX 1 29 Aug 08:05:45 08:08:32 15° 87° (E) 08:11:37 467.674
VERMONT LUNAR 29 Aug 08:08:41 08:11:36 52° 182° (S) 08:14:31 437.305
AO-7 29 Aug 08:13:31 08:18:19 16° 314° (NW) 08:22:44 29.400- 29.500
DOVE 4 29 Aug 08:34:08 08:37:18 16° 87° (E) 08:40:41 437.250
AIST 1 29 Aug 08:41:07 08:44:49 31° 91° (E) 08:48:36
PRISM 29 Aug 08:43:17 08:46:38 23° 266° (W) 08:49:55 437.425
STRAND 1 29 Aug 08:47:15 08:51:13 22° 268° (W) 08:55:05 437.568
CUTE-I 29 Aug 08:47:49 08:52:37 35° 293° (WNW) 08:57:22 437.470
Cosmos 2491 29 Aug 08:52:00 08:58:36 26° 82° (E) 09:05:31 435.465 / 435.565
HO-68 29 Aug 08:55:12 09:00:40 24° 91° (E) 09:06:22 435.675
BRITE-PL 29 Aug 08:57:16 09:02:41 69° 100° (E) 09:08:21 437.365/2234.400
CUTE 1.7 + AOD 2 29 Aug 09:00:10 09:02:38 15° 90° (E) 09:05:14 437.475
CANX-2 29 Aug 09:12:58 09:16:22 24° 93° (E) 09:19:49 2200.000
AUBIESAT-1 29 Aug 09:21:30 09:23:07 12° 55° (NE) 09:24:56 437.475
M-CUBED/EXP-1 PRIME 29 Aug 09:22:52 09:25:20 15° 57° (ENE) 09:27:58 437.505
Cosmos 2504 29 Aug 09:28:15 09:31:44 13° 52° (NE) 09:35:42 435.465 / 435.565
SO-50 29 Aug 09:30:18 09:33:06 15° 32° (NNE) 09:36:00 436.795
PHONESAT 2.4 29 Aug 09:30:22 09:33:41 52° 173° (S) 09:37:01 2401.200-2431.200
SEEDS 29 Aug 09:39:39 09:43:26 33° 96° (E) 09:47:13 437.485
CINEMA 3 29 Aug 09:41:06 09:45:29 30° 94° (E) 09:49:51 145.822/145.860
GOMX 1 29 Aug 09:41:51 09:47:16 79° 285° (WNW) 09:52:47 467.674
Cubesat XI-IV 29 Aug 09:43:45 09:46:10 13° 302° (WNW) 09:48:20 437.490
VERMONT LUNAR 29 Aug 09:45:10 09:47:47 27° 198° (SSW) 09:50:24 437.305
CUBEBUG 2 29 Aug 09:52:36 09:55:38 17° 89° (E) 09:58:46 437.445
YUBILEINY 29 Aug 09:59:17 10:08:02 66° 267° (W) 10:16:40 435.215
UWE-3 29 Aug 10:05:52 10:08:57 18° 90° (E) 10:12:08 435.000/436.395/437.385
COMPASS 1 29 Aug 10:06:26 10:10:30 51° 99° (E) 10:14:32 437.405
ZACube-1 29 Aug 10:06:32 10:08:38 13° 87° (E) 10:10:57 437.345
ISS 29 Aug 10:09:44 10:12:24 24° 136° (SE) 10:15:06 145.825
DOVE 4 29 Aug 10:10:17 10:15:34 69° 286° (WNW) 10:20:50 437.250
FUNcube-1 29 Aug 10:12:58 10:15:31 15° 88° (E) 10:18:14 145.935
PCSat 29 Aug 10:14:24 10:16:23 12° 32° (NNE) 10:18:33 145.827
UNISAT 6 29 Aug 10:15:08 10:19:00 27° 68° (ENE) 10:22:59 437.425
AIST 1 29 Aug 10:19:09 10:22:33 22° 289° (WNW) 10:25:51
AAUSAT CUBESAT 2 29 Aug 10:19:18 10:23:25 61° 101° (E) 10:27:29 437.432
POLYITAN 1 29 Aug 10:25:18 10:26:54 12° 62° (ENE) 10:28:42 437.675
POPSAT HIP 1 29 Aug 10:28:51 10:30:41 13° 63° (ENE) 10:32:42 437.405
DUCHIFAT 1 29 Aug 10:31:55 10:33:51 13° 63° (ENE) 10:35:59 145.980
CUTE 1.7 + AOD 2 29 Aug 10:34:47 10:38:52 47° 287° (WNW) 10:42:53 437.475
BRITE-PL 29 Aug 10:36:59 10:40:45 19° 296° (WNW) 10:44:27 437.365/2234.400
CUSAT 1 29 Aug 10:38:56 10:44:41 24° 65° (ENE) 10:51:10 437.405
HO-68 29 Aug 10:41:54 10:49:04 68° 290° (WNW) 10:56:11 435.675
QB50P2 29 Aug 10:43:47 10:46:44 19° 66° (ENE) 10:49:49 145.880/145.840
TIGRISAT 29 Aug 10:44:13 10:48:41 49° 72° (ENE) 10:53:16 435.000
DANDE 29 Aug 10:45:27 10:50:12 19° 63° (ENE) 10:55:48 436.750
Cosmos 2491 29 Aug 10:46:07 10:54:48 69° 282° (WNW) 11:03:30 435.465 / 435.565
NANOSAT C BR1 29 Aug 10:47:07 10:50:07 19° 66° (ENE) 10:53:14 145.865
CANX-2 29 Aug 10:48:35 10:52:20 30° 290° (WNW) 10:56:00 2200.000
AUBIESAT-1 29 Aug 10:52:24 10:57:09 82° 71° (ENE) 11:01:53 437.475
BUGSAT 1 29 Aug 10:52:41 10:54:33 13° 63° (ENE) 10:56:37 437.445
M-CUBED/EXP-1 PRIME 29 Aug 10:54:44 10:59:32 82° 252° (WSW) 11:04:19 437.505
QB50P1 29 Aug 10:58:57 11:02:26 26° 68° (ENE) 11:06:01 145.935-145.965
ANTELSAT 29 Aug 10:59:50 11:04:30 74° 75° (ENE) 11:09:14 437.575/2403.000
Oscar 11 29 Aug 11:04:23 11:08:44 84° 104° (ESE) 11:13:02 145.826/435.025
DELFI C3 29 Aug 11:04:33 11:08:30 54° 100° (E) 11:12:23 145.870
PHONESAT 2.4 29 Aug 11:08:05 11:11:23 47° 190° (S) 11:14:41 2401.200-2431.200
SO-50 29 Aug 11:09:39 11:14:36 70° 54° (NE) 11:19:26 436.795
UKube-1 29 Aug 11:10:51 11:12:31 12° 89° (E) 11:14:26 .
HUMSAT D 29 Aug 11:14:53 11:18:30 27° 94° (E) 11:22:08 437.325/437.525
SEEDS 29 Aug 11:15:46 11:19:04 22° 292° (WNW) 11:22:15 437.485
Cosmos 2504 29 Aug 11:17:42 11:26:13 63° 77° (ENE) 11:34:16 435.465 / 435.565
CINEMA 3 29 Aug 11:18:08 11:22:40 33° 291° (WNW) 11:27:03 145.822/145.860
GOMX 1 29 Aug 11:22:22 11:24:39 12° 300° (WNW) 11:26:41 467.674
CUBEBUG 2 29 Aug 11:28:05 11:32:41 51° 287° (WNW) 11:37:09 437.445
VELOX 1 29 Aug 11:31:58 11:34:31 15° 90° (E) 11:37:15 145.980
ZACube-1 29 Aug 11:41:00 11:45:30 61° 286° (WNW) 11:49:53 437.345
UWE-3 29 Aug 11:41:19 11:45:47 47° 288° (WNW) 11:50:07 435.000/436.395/437.385
COMPASS 1 29 Aug 11:43:21 11:45:47 15° 295° (WNW) 11:48:04 437.405
ISS 29 Aug 11:45:30 11:48:39 46° 333° (NNW) 11:51:48 145.825
FUNcube-1 29 Aug 11:47:49 11:52:16 53° 287° (WNW) 11:56:34 145.935
UNISAT 6 29 Aug 11:51:24 11:55:40 34° 265° (W) 11:59:56 437.425
DOVE 4 29 Aug 11:51:32 11:52:27 10° 302° (WNW) 11:53:04 437.250
PCSat 29 Aug 11:55:51 12:01:10 53° 54° (NE) 12:06:28 145.827
AAUSAT CUBESAT 2 29 Aug 11:56:36 11:58:33 13° 296° (WNW) 12:00:19 437.432
POLYITAN 1 29 Aug 11:58:01 12:02:16 71° 259° (WSW) 12:06:35 437.675
YUBILEINY 29 Aug 12:00:05 12:03:17 12° 286° (WNW) 12:05:47 435.215
POPSAT HIP 1 29 Aug 12:01:51 12:06:03 66° 259° (W) 12:10:19 437.405
50 SAT 29 Aug 12:04:08 12:07:47 38° 98° (E) 12:11:25 437.505
DUCHIFAT 1 29 Aug 12:04:59 12:09:10 63° 259° (W) 12:13:24 145.980
ESTCUBE 1 29 Aug 12:14:11 12:18:12 32° 96° (E) 12:22:16 437.505/2401.250
QB50P2 29 Aug 12:18:19 12:22:21 41° 262° (W) 12:26:25 145.880/145.840
Oscar 19 29 Aug 12:19:09 12:20:24 11° 58° (ENE) 12:21:56 437.125/150
CUSAT 1 29 Aug 12:20:24 12:27:56 81° 262° (W) 12:36:13 437.405
NANOSAT C BR1 29 Aug 12:21:42 12:25:41 39° 262° (W) 12:29:43 145.865
TIGRISAT 29 Aug 12:22:29 12:25:45 18° 270° (W) 12:28:55 435.000
BUGSAT 1 29 Aug 12:25:35 12:29:34 57° 260° (W) 12:33:38 437.445
DANDE 29 Aug 12:26:56 12:34:10 84° 79° (E) 12:42:40 436.750
DX 1 29 Aug 12:27:32 12:31:57 87° 289° (WNW) 12:36:21 434.975-435.025
AUBIESAT-1 29 Aug 12:30:34 12:32:25 12° 268° (W) 12:34:00 437.475
HO-68 29 Aug 12:31:49 12:35:39 15° 309° (NW) 12:39:08 435.675
QB50P1 29 Aug 12:34:31 12:38:13 29° 265° (W) 12:41:56 145.935-145.965
AISAT 29 Aug 12:37:52 12:42:22 80° 103° (ESE) 12:46:52 437.250
ANTELSAT 29 Aug 12:39:57 12:41:54 12° 273° (W) 12:43:35 437.575/2403.000
DELFI C3 29 Aug 12:41:08 12:43:08 13° 296° (WNW) 12:44:58 145.870
Oscar 11 29 Aug 12:43:27 12:44:19 10° 299° (WNW) 12:44:57 145.826/435.025
UKube-1 29 Aug 12:44:49 12:49:08 63° 286° (WNW) 12:53:25 .
PHONESAT 2.4 29 Aug 12:46:22 12:48:52 19° 206° (SSW) 12:51:21 2401.200-2431.200
CUBEBUG 1 29 Aug 12:47:27 12:51:50 60° 101° (E) 12:56:13 437.445
Cosmos 2491 29 Aug 12:49:04 12:53:47 15° 306° (NW) 12:57:58 435.465 / 435.565
HUMSAT D 29 Aug 12:50:33 12:54:12 27° 291° (WNW) 12:57:43 437.325/437.525
GONETS M04 29 Aug 12:51:31 12:55:19 14° 53° (NE) 12:59:43
SO-50 29 Aug 12:51:38 12:54:37 16° 250° (WSW) 12:57:23 436.795
SPROUT 29 Aug 12:54:48 12:58:12 23° 93° (E) 13:01:41 437.525
VELOX 1 29 Aug 13:07:05 13:11:26 53° 287° (WNW) 13:15:47 145.980
Cosmos 2504 29 Aug 13:10:46 13:17:53 29° 277° (W) 13:24:28 435.465 / 435.565
JAS-2 29 Aug 13:23:04 13:26:14 13° 51° (NE) 13:29:49 435.910
ISS 29 Aug 13:23:13 13:25:37 19° 353° (N) 13:28:01 145.825
50 SAT 29 Aug 13:39:29 13:42:02 17° 294° (WNW) 13:44:27 437.505
PCSat 29 Aug 13:39:59 13:44:16 23° 252° (WSW) 13:48:24 145.827
AO-7 29 Aug 13:41:23 13:43:14 11° 40° (NE) 13:45:34 29.400- 29.500
ESTCUBE 1 29 Aug 13:51:14 13:54:58 26° 293° (WNW) 13:58:38 437.505/2401.250
Oscar 19 29 Aug 13:53:49 13:58:58 76° 75° (ENE) 14:04:11 437.125/150
CUSAT 1 29 Aug 14:04:58 14:09:48 17° 276° (W) 14:14:25 437.405
SWISSCUBE 29 Aug 14:06:24 14:08:57 15° 89° (E) 14:11:43 437.505
TISAT 1 29 Aug 14:09:25 14:13:44 84° 104° (ESE) 14:18:00 437.305
DANDE 29 Aug 14:11:26 14:16:53 22° 273° (W) 14:22:31 436.750
Gurwin Techsat 1B 29 Aug 14:12:50 14:17:40 37° 68° (ENE) 14:22:33 435.225
AISAT 29 Aug 14:16:37 14:18:22 12° 299° (WNW) 14:19:54 437.250
CUBEBUG 1 29 Aug 14:25:15 14:27:45 15° 296° (WNW) 14:30:05 437.445
SPROUT 29 Aug 14:30:25 14:34:22 34° 290° (WNW) 14:38:15 437.525
ITUPSAT 1 29 Aug 14:42:20 14:46:30 30° 96° (E) 14:50:42 437.325
GONETS M04 29 Aug 14:45:41 14:54:26 65° 77° (ENE) 15:03:12
ITAMSAT 1 29 Aug 14:46:37 14:51:43 62° 72° (ENE) 14:56:51 435.822/435.867
ISS 29 Aug 15:00:15 15:02:50 21° 13° (NNE) 15:05:24 145.825
JAS-2 29 Aug 15:02:23 15:09:46 57° 70° (ENE) 15:17:27 435.910
BEESAT 29 Aug 15:16:59 15:21:45 69° 102° (ESE) 15:26:29 436.000
RS-15 29 Aug 15:18:44 15:23:19 14° 98° (E) 15:28:54 29.354- 29.394
BEESAT 3 29 Aug 15:26:10 15:28:27 15° 111° (ESE) 15:30:54 437.485
AO-7 29 Aug 15:26:21 15:34:04 45° 62° (ENE) 15:41:53 29.400- 29.500
BEESAT 2 29 Aug 15:34:23 15:36:27 14° 111° (ESE) 15:38:40 435.950
Cosmos 2499 29 Aug 15:34:35 15:42:31 38° 69° (ENE) 15:50:09 435.465 / 435.565
KKS-1 29 Aug 15:36:02 15:39:05 18° 91° (E) 15:42:16 437.445
Oscar 19 29 Aug 15:36:24 15:39:01 13° 273° (W) 15:41:22 437.125/150
SWISSCUBE 29 Aug 15:42:35 15:47:18 61° 287° (WNW) 15:51:59 437.505
HORYU 2 29 Aug 15:45:42 15:49:33 29° 68° (ENE) 15:53:29 437.375
TISAT 1 29 Aug 15:48:06 15:48:53 10° 299° (WNW) 15:49:26 437.305
Gurwin Techsat 1B 29 Aug 15:53:05 15:57:44 29° 266° (W) 16:02:18 435.225
ITUPSAT 1 29 Aug 16:20:11 16:24:22 30° 292° (WNW) 16:28:28 437.325
ITAMSAT 1 29 Aug 16:28:21 16:31:44 17° 270° (W) 16:34:53 435.822/435.867
ISS 29 Aug 16:36:23 16:39:38 74° 30° (NNE) 16:42:52 145.825
GONETS M04 29 Aug 16:43:29 16:50:43 29° 277° (W) 16:57:41
JAS-2 29 Aug 16:48:21 16:55:08 33° 269° (W) 17:02:02 435.910
BEESAT 29 Aug 16:56:22 16:59:05 15° 298° (WNW) 17:01:36 436.000
STARS 29 Aug 16:59:36 17:04:05 83° 103° (ESE) 17:08:32 437.465
BEESAT 3 29 Aug 17:02:00 17:06:00 54° 307° (NW) 17:10:00 437.485
MOZHAYETS 4 29 Aug 17:05:06 17:08:45 24° 93° (E) 17:12:28
BEESAT 2 29 Aug 17:10:00 17:14:03 59° 307° (NW) 17:18:08 435.950
KKS-1 29 Aug 17:11:41 17:15:59 45° 289° (WNW) 17:20:15 437.445
AO-7 29 Aug 17:18:59 17:26:55 45° 261° (W) 17:34:47 29.400- 29.500
HORYU 2 29 Aug 17:22:15 17:26:10 28° 265° (W) 17:30:02 437.375
RS-15 29 Aug 17:22:58 17:33:43 69° 117° (ESE) 17:44:57 29.354- 29.394
Cosmos 2499 29 Aug 17:27:38 17:36:00 51° 270° (W) 17:43:47 435.465 / 435.565
AIST 2 29 Aug 17:28:06 17:32:09 44° 118° (ESE) 17:36:13 435.215
Cubesat XI-IV 29 Aug 17:45:55 17:50:03 24° 64° (ENE) 17:54:18 437.490
ISS 29 Aug 18:13:51 18:15:41 14° 227° (SW) 18:17:26 145.825
CUTE-I 29 Aug 18:30:26 18:35:37 57° 72° (ENE) 18:40:51 437.470
STARS 29 Aug 18:38:26 18:39:55 11° 299° (WNW) 18:41:12 437.465
MOZHAYETS 4 29 Aug 18:41:54 18:46:05 35° 290° (WNW) 18:50:11
CUBESAT XI-V 29 Aug 18:51:25 18:55:20 27° 94° (E) 18:59:21 437.345
BEESAT 2 29 Aug 18:52:15 18:53:01 10° 327° (NNW) 18:53:37 435.950
Cosmos 2491 29 Aug 19:01:09 19:04:44 13° 52° (NE) 19:08:55 435.465 / 435.565
AIST 2 29 Aug 19:07:27 19:10:55 23° 317° (NW) 19:14:18 435.215
GOMX 1 29 Aug 19:15:42 19:18:03 14° 61° (ENE) 19:20:41 467.674
STRAND 1 29 Aug 19:17:58 19:20:32 14° 88° (E) 19:23:22 437.568
Cubesat XI-IV 29 Aug 19:24:44 19:29:53 48° 261° (W) 19:35:02 437.490
HO-68 29 Aug 19:25:52 19:30:52 22° 56° (NE) 19:36:07 435.675
RS-15 29 Aug 19:36:36 19:46:59 43° 324° (NW) 19:57:44 29.354- 29.394
DOVE 4 29 Aug 19:41:13 19:44:00 16° 62° (ENE) 19:47:02 437.250
CUTE 1.7 + AOD 2 29 Aug 19:54:36 19:56:44 14° 64° (ENE) 19:59:03 437.475
CANX-2 29 Aug 20:07:04 20:10:12 21° 67° (ENE) 20:13:27 2200.000
BRITE-PL 29 Aug 20:09:38 20:13:55 79° 75° (ENE) 20:18:34 437.365/2234.400
CUTE-I 29 Aug 20:12:20 20:16:09 19° 270° (W) 20:19:47 437.470
PRISM 29 Aug 20:23:33 20:27:26 41° 99° (E) 20:31:21 437.425
AIST 1 29 Aug 20:23:58 20:28:17 85° 266° (W) 20:32:38
O/OREOS (USA 219) 29 Aug 20:25:54 20:30:25 87° 112° (ESE) 20:35:01 437.305
CUBESAT XI-V 29 Aug 20:28:41 20:32:48 31° 291° (WNW) 20:36:52 437.345
SEEDS 29 Aug 20:32:35 20:36:09 27° 69° (ENE) 20:39:47 437.485
CINEMA 3 29 Aug 20:43:38 20:47:38 30° 68° (ENE) 20:51:52 145.822/145.860
GOMX 1 29 Aug 20:51:11 20:55:36 66° 260° (W) 21:00:22 467.674
CUBEBUG 2 29 Aug 20:51:53 20:54:51 18° 64° (ENE) 20:58:01 437.445
Cosmos 2491 29 Aug 20:55:14 21:03:54 64° 77° (ENE) 21:12:37 435.465 / 435.565
STRAND 1 29 Aug 20:55:16 21:00:21 71° 287° (WNW) 21:05:26 437.568
COMPASS 1 29 Aug 20:58:16 21:02:12 39° 71° (ENE) 21:06:09 437.405
ZACube-1 29 Aug 21:03:45 21:05:53 14° 63° (ENE) 21:08:15 437.345
UWE-3 29 Aug 21:04:02 21:07:03 18° 64° (ENE) 21:10:14 435.000/436.395/437.385
YUBILEINY 29 Aug 21:05:49 21:13:05 32° 84° (E) 21:20:35 435.215
FUNcube-1 29 Aug 21:09:53 21:12:23 15° 64° (ENE) 21:15:06 145.935
AAUSAT CUBESAT 2 29 Aug 21:10:36 21:14:36 45° 73° (ENE) 21:18:37 437.432
HO-68 29 Aug 21:10:42 21:17:52 83° 254° (WSW) 21:25:07 435.675
DOVE 4 29 Aug 21:16:45 21:21:13 60° 261° (W) 21:26:02 437.250
CUTE 1.7 + AOD 2 29 Aug 21:27:57 21:32:13 60° 260° (W) 21:36:28 437.475
CANX-2 29 Aug 21:41:53 21:45:55 38° 263° (W) 21:49:55 2200.000
DELFI C3 29 Aug 21:52:18 21:56:02 37° 72° (ENE) 21:59:48 145.870
RS-15 29 Aug 21:54:43 22:03:33 25° 357° (N) 22:12:39 29.354- 29.394
Oscar 11 29 Aug 21:59:40 22:04:00 72° 75° (ENE) 22:08:21 145.826/435.025
PRISM 29 Aug 21:59:47 22:02:36 18° 294° (WNW) 22:05:17 437.425
UKube-1 29 Aug 22:06:55 22:08:50 13° 62° (ENE) 22:10:57 .
HUMSAT D 29 Aug 22:07:33 22:10:55 23° 67° (ENE) 22:14:23 437.325/437.525
SEEDS 29 Aug 22:08:12 22:11:53 27° 265° (W) 22:15:31 437.485
O/OREOS (USA 219) 29 Aug 22:08:31 22:10:37 13° 313° (NW) 22:12:32 437.305
CINEMA 3 29 Aug 22:20:37 22:24:46 31° 266° (W) 22:29:03 145.822/145.860
CUBEBUG 2 29 Aug 22:26:35 22:31:07 56° 261° (W) 22:35:47 437.445
VELOX 1 29 Aug 22:30:47 22:33:26 16° 64° (ENE) 22:36:15 145.980
COMPASS 1 29 Aug 22:35:02 22:38:02 18° 269° (W) 22:40:56 437.405
ZACube-1 29 Aug 22:37:10 22:41:41 71° 259° (WSW) 22:46:18 437.345
UWE-3 29 Aug 22:38:41 22:43:10 53° 261° (W) 22:47:46 435.000/436.395/437.385
FUNcube-1 29 Aug 22:43:44 22:48:13 62° 259° (W) 22:52:47 145.935
AAUSAT CUBESAT 2 29 Aug 22:47:48 22:50:29 16° 270° (W) 22:52:58 437.432
50 SAT 29 Aug 22:48:31 22:51:47 25° 69° (ENE) 22:55:07 437.505
ANTELSAT 29 Aug 22:52:35 22:55:04 15° 88° (E) 22:57:43 437.575/2403.000
Cosmos 2491 29 Aug 22:53:01 23:00:14 29° 277° (W) 23:07:12 435.465 / 435.565
YUBILEINY 29 Aug 23:00:48 23:09:27 59° 284° (WNW) 23:18:10 435.215
HO-68 29 Aug 23:02:53 23:06:50 15° 275° (W) 23:10:20 435.675
ESTCUBE 1 29 Aug 23:14:41 23:18:42 34° 70° (ENE) 23:22:46 437.505/2401.250
DX 1 29 Aug 23:23:45 23:28:05 90° 204° (SSW) 23:32:28 434.975-435.025
DELFI C3 29 Aug 23:28:24 23:31:16 18° 268° (W) 23:34:01 145.870
AISAT 29 Aug 23:36:14 23:40:37 79° 75° (ENE) 23:45:04 437.250
Oscar 11 29 Aug 23:39:38 23:40:46 11° 273° (W) 23:41:38 145.826/435.025
UKube-1 29 Aug 23:40:11 23:44:28 66° 258° (WSW) 23:48:47 .
UNISAT 6 29 Aug 23:42:07 23:46:35 48° 98° (E) 23:50:57 437.425
HUMSAT D 29 Aug 23:42:31 23:46:28 34° 264° (W) 23:50:25 437.325/437.525
BEESAT 3 29 Aug 23:42:37 23:45:09 16° 39° (NE) 23:47:44 437.485
POLYITAN 1 29 Aug 23:43:24 23:46:19 18° 91° (E) 23:49:20 437.675
CUBEBUG 1 29 Aug 23:44:19 23:48:31 55° 73° (ENE) 23:52:46 437.445
POPSAT HIP 1 29 Aug 23:46:51 23:49:54 19° 92° (E) 23:53:03 437.405
Cosmos 2504 29 Aug 23:48:19 23:55:50 46° 88° (E) 00:03:51 435.465 / 435.565
DUCHIFAT 1 29 Aug 23:49:26 23:52:31 19° 92° (E) 23:55:41 145.980
SPROUT 29 Aug 23:50:08 23:53:16 21° 66° (ENE) 23:56:31 437.525
BEESAT 2 29 Aug 23:51:13 23:53:40 15° 38° (NE) 23:56:10 435.950
QB50P2 30 Aug 00:02:41 00:06:26 29° 95° (E) 00:10:13 145.880/145.840
VELOX 1 30 Aug 00:05:19 00:09:36 53° 260° (W) 00:13:57 145.980
NANOSAT C BR1 30 Aug 00:05:34 00:09:20 29° 95° (E) 00:13:07 145.865
AUBIESAT-1 30 Aug 00:07:22 00:11:19 51° 104° (ESE) 00:14:56 437.475
BUGSAT 1 30 Aug 00:07:24 00:10:26 19° 92° (E) 00:13:34 437.445
RS-15 30 Aug 00:10:14 00:20:35 36° 30° (NNE) 00:31:31 29.354- 29.394
M-CUBED/EXP-1 PRIME 30 Aug 00:10:19 00:14:25 68° 106° (ESE) 00:18:09 437.505
TIGRISAT 30 Aug 00:11:35 00:16:14 86° 284° (WNW) 00:20:43 435.000
QB50P1 30 Aug 00:18:01 00:22:06 41° 98° (E) 00:26:10 145.935-145.965
50 SAT 30 Aug 00:22:54 00:26:15 25° 265° (W) 00:29:33 437.505
ANTELSAT 30 Aug 00:27:46 00:32:19 57° 287° (WNW) 00:36:43 437.575/2403.000
BEESAT 30 Aug 00:50:32 00:51:46 11° 59° (ENE) 00:53:16 436.000
ESTCUBE 1 30 Aug 00:51:57 00:55:39 24° 267° (W) 00:59:15 437.505/2401.250
TISAT 1 30 Aug 01:02:03 01:06:13 69° 75° (ENE) 01:10:27 437.305
YUBILEINY 30 Aug 01:05:14 01:08:48 12° 309° (NW) 01:11:46 435.215
SWISSCUBE 30 Aug 01:13:43 01:17:06 20° 65° (ENE) 01:20:38 437.505
POLYITAN 1 30 Aug 01:18:20 01:22:27 42° 288° (WNW) 01:26:29 437.675
BEESAT 3 30 Aug 01:19:31 01:23:32 68° 239° (WSW) 01:27:28 437.485
UNISAT 6 30 Aug 01:19:45 01:23:01 19° 295° (WNW) 01:26:06 437.425
POPSAT HIP 1 30 Aug 01:21:54 01:25:57 39° 289° (WNW) 01:29:57 437.405
CUBEBUG 1 30 Aug 01:22:58 01:25:18 14° 271° (W) 01:27:26 437.445
DUCHIFAT 1 30 Aug 01:24:28 01:28:29 38° 289° (WNW) 01:32:26 145.980
SPROUT 30 Aug 01:25:06 01:29:07 38° 263° (W) 01:33:09 437.525
SO-50 30 Aug 01:26:08 01:29:21 19° 111° (ESE) 01:32:46 436.795
BEESAT 2 30 Aug 01:28:08 01:32:12 74° 239° (WSW) 01:36:12 435.950
CUSAT 1 30 Aug 01:29:17 01:32:57 69° 282° (WNW) 01:37:56 437.405
QB50P2 30 Aug 01:38:37 01:42:15 26° 292° (WNW) 01:45:48 145.880/145.840
Cosmos 2504 30 Aug 01:40:34 01:48:11 41° 290° (WNW) 01:56:06 435.465 / 435.565
DANDE 30 Aug 01:41:13 01:44:30 86° 279° (W) 01:48:54 436.750
NANOSAT C BR1 30 Aug 01:41:29 01:45:05 26° 292° (WNW) 01:48:34 145.865
BUGSAT 1 30 Aug 01:42:05 01:46:03 38° 289° (WNW) 01:50:00 437.445
AUBIESAT-1 30 Aug 01:43:15 01:45:35 15° 303° (WNW) 01:47:41 437.475
M-CUBED/EXP-1 PRIME 30 Aug 01:46:51 01:48:36 12° 305° (NW) 01:50:09 437.505
AIST 2 30 Aug 01:48:54 01:52:51 39° 49° (NE) 01:56:46 435.215
ITUPSAT 1 30 Aug 01:49:54 01:54:19 39° 70° (ENE) 01:58:47 437.325
TIGRISAT 30 Aug 01:51:22 01:52:15 10° 300° (WNW) 01:52:53 435.000
QB50P1 30 Aug 01:54:34 01:57:42 19° 294° (WNW) 02:00:41 145.935-145.965
GONETS M04 30 Aug 01:57:15 02:00:35 13° 75° (ENE) 02:04:35
Oscar 19 30 Aug 02:05:04 02:09:17 25° 93° (E) 02:13:35 437.125/150
